EDT,Max TemperatureF,Mean TemperatureF,Min TemperatureF,Max Dew PointF,MeanDew PointF,Min DewpointF,Max Humidity, Mean Humidity, Min Humidity, Max Sea Level PressureIn, Mean Sea Level PressureIn, Min Sea Level PressureIn, Max VisibilityMiles, Mean VisibilityMiles, Min VisibilityMiles, Max Wind SpeedMPH, Mean Wind SpeedMPH, Max Gust SpeedMPH,PrecipitationIn, CloudCover, Events, WindDirDegrees
2013-4-1,77,65,53,64,54,34,100,73,28,30.03,29.96,29.91,10,10,7,15,6,24,0.00,5,Rain-Thunderstorm,279
2013-4-2,75,60,46,54,43,36,100,59,24,30.18,30.10,30.03,10,10,10,10,2,,0.00,0,,343
2013-4-3,64,54,44,54,42,36,100,65,34,30.19,30.15,30.10,10,10,7,10,4,17,0.00,4,Rain,59
2013-4-4,51,48,44,52,47,45,100,100,82,30.17,30.04,29.97,10,7,3,17,9,30,0.00,8,Rain,57
2013-4-5,62,52,41,52,44,41,100,87,48,30.08,30.01,29.93,10,9,3,10,5,17,0.00,6,Rain-Thunderstorm,16
2013-4-6,73,55,37,54,39,28,100,63,19,30.22,30.16,30.08,10,10,2,10,2,,0.00,0,,125
2013-4-7,78,60,42,61,49,41,100,70,28,30.25,30.18,30.11,10,9,3,10,4,16,0.00,3,,174
2013-4-8,80,64,48,61,52,45,100,70,28,30.19,30.14,30.09,10,8,0,13,4,16,0.00,2,Fog,188
2013-4-9,84,68,51,66,56,50,100,71,32,30.22,30.16,30.13,10,9,0,10,3,,0.00,1,Fog,186
2013-4-10,84,68,53,66,55,45,100,68,25,30.18,30.10,30.00,10,8,0,13,4,18,0.00,0,Fog,170
2013-4-11,82,70,59,75,68,59,100,92,51,30.01,29.91,29.76,10,8,0,16,6,36,0.00,5,Fog-Rain-Thunderstorm,175
2013-4-12,80,70,60,73,58,36,100,70,21,29.94,29.82,29.75,10,10,2,15,9,28,0.00,4,Rain,264
2013-4-13,80,65,50,54,38,23,100,44,12,30.05,29.99,29.94,10,10,10,9,5,,0.00,0,,336
2013-4-14,62,56,50,63,58,50,100,100,94,30.11,30.01,29.83,10,9,2,23,3,33,0.00,4,Rain,93
2013-4-15,77,67,57,64,60,57,100,84,54,30.17,30.04,29.95,10,9,1,9,2,,0.00,5,,87
2013-4-16,82,68,55,70,61,55,100,79,39,30.26,30.21,30.17,10,8,0,8,2,,0.00,3,Fog,102
2013-4-17,84,70,57,68,59,52,100,71,35,30.25,30.19,30.13,10,10,4,8,3,,0.00,1,,137
2013-4-18,82,70,59,72,62,59,100,75,45,30.13,30.07,29.98,10,10,4,13,5,18,0.00,3,,146
2013-4-19,82,66,51,75,65,52,100,95,54,30.06,29.95,29.87,10,9,3,26,8,40,0.00,5,Rain-Thunderstorm,225
2013-4-20,68,55,42,54,42,30,100,71,24,30.24,30.16,30.06,10,10,3,10,6,,0.00,0,Rain,334
2013-4-21,71,56,42,52,40,32,100,57,23,30.34,30.28,30.24,10,10,1,21,5,28,0.00,1,,73
2013-4-22,71,62,53,54,42,34,100,54,33,30.30,30.24,30.16,10,10,10,16,8,21,0.00,4,,58
2013-4-23,75,60,46,59,45,37,100,61,34,30.24,30.18,30.11,10,10,10,9,3,,0.00,0,,67
2013-4-24,80,66,53,70,57,52,100,75,37,30.20,30.15,30.08,10,9,3,12,5,20,0.00,5,,200
2013-4-25,80,68,57,68,52,30,100,63,17,30.28,30.20,30.11,10,10,10,14,3,18,0.00,3,,317
2013-4-26,78,60,42,59,42,32,100,48,23,30.38,30.31,30.27,10,10,10,13,4,18,0.00,0,,98
2013-4-27,80,66,53,57,48,41,100,56,26,30.34,30.27,30.19,10,10,10,16,4,21,0.00,2,,119
2013-4-28,78,69,60,72,60,50,100,80,51,30.19,30.11,30.01,10,10,5,15,5,24,0.00,6,Rain-Thunderstorm,137
2013-4-29,73,68,60,70,65,61,100,97,69,30.07,30.02,29.97,10,9,2,7,2,,0.00,7,Rain,332
2013-4-30,80,68,55,70,58,46,100,78,30,30.11,30.04,29.98,10,6,0,8,1,,0.00,4,Fog,77